Погода в Старой Соли

Украина / Львовская область     49°29′21″N   22°57′55″E
темп.,
°C
ветер,
м/с
пор.,
м/с
влажн.,
%
обл.,
%
осадки,
мм/ч
давл.,
гПа
погр.,
м
18 сентября, сб
сб1800:00+12зсз41094100 0.5 1010675
03:00+13зсз4995100 0.6 1010550
06:00+12з51095100 0.3 1009569
09:00+12з51093100 0.4 1010693
12:00+12з6119394 0.7 1010706
15:00+14зсз6107865 1.2 10101032
18:00+12зсз5118599 0.4 1010818
21:00+11з41192100 1.0 1011610
19 сентября, вс
вс1900:00+11зюз41093100 0.1 1010621
03:00+8ссз4697100 2.8 1011484
06:00+7з41194100 2.2 10121192
09:00+5зсз5996100 3.6 1013977
12:00+5зсз4894100 0.5 10131084
15:00+6зсз5992100 1.1 10141135
18:00+6зсз4993100 0.9 10141072
21:00+5зсз3894100 1.4 10151095
20 сентября, пн
пн2000:00+6зсз31094100 0.5 10151031
03:00+5сз3795100 0.8 1016942
06:00+5зсз3795100 0.1 1016906
09:00+5сз3695100 0.2 1016799
12:00+6сз3593100 0.1 1017864
15:00+6зсз3688100 0.4 1018665
18:00+6зсз3789100 0.1 1018724
21:00+5зсз2591100 0.3 1020296
21 сентября, вт
вт2100:00+5зсз2691100 0.0 1021410
03:00+5зюз2488100 0.1 1021122
06:00+5зсз388550 0.0 1022558
09:00+4зсз488591 0.0 1024853
12:00+7сз4867100 0.0 1024946
15:00+9сз486495 0.0 10251147
18:00+9сз3772100 0.1 1025911
21:00+7з2277100 0.1 102631
22 сентября, ср
ср2200:00+4сз2393100 0.0 102753
03:00+4зюз2291100 0.0 102742
06:00+3зюз2290100 0.0 102729
09:00+6з247699 0.0 1026220
12:00+7ссз3467100 0.0 1026645
15:00+9ссз4556100 0.1 10241497
18:00+9ссз3557100 0.0 1024519
21:00+8сз2258100 0.0 102329